This is the latest recevied weather packets stored in our database for station/object DO1MIT-10. If no packets are shown the sender has not sent any weather packets the latest 10 day(s).
| Time | Temp. | Humidity | Pressure | Rain* | Wind** | Luminosity | Snow |
|---|---|---|---|---|---|---|---|
| 1787858610 | 18.33° C | 69% | 1018.1 hPa | - | - | - | - |
| 1787857710 | 18.89° C | 68% | 1018.3 hPa | - | - | - | - |
| 1787856810 | 18.89° C | 67% | 1018.3 hPa | - | - | - | - |
| 1787855910 | 19.44° C | 66% | 1018.4 hPa | - | - | - | - |
| 1787855009 | 19.44° C | 65% | 1018.4 hPa | - | - | - | - |
| 1787854109 | 20° C | 64% | 1018.2 hPa | - | - | - | - |
| 1787853209 | 20.56° C | 61% | 1018.3 hPa | - | - | - | - |
| 1787852309 | 21.67° C | 60% | 1018.4 hPa | - | - | - | - |
| 1787851409 | 22.78° C | 58% | 1018.3 hPa | - | - | - | - |
| 1787850509 | 23.89° C | 57% | 1018.2 hPa | - | - | - | - |
| 1787849609 | 24.44° C | 56% | 1018.3 hPa | - | - | - | - |
| 1787848709 | 25° C | 55% | 1018.5 hPa | - | - | - | - |
| 1787847808 | 26.67° C | 55% | 1018.7 hPa | - | - | - | - |
| 1787846908 | 25.56° C | 55% | 1019 hPa | - | - | - | - |
| 1787846008 | 25.56° C | 54% | 1018.9 hPa | - | - | - | - |
| 1787845108 | 25.56° C | 54% | 1018.9 hPa | - | - | - | - |
| 1787844208 | 26.67° C | 53% | 1019.1 hPa | - | - | - | - |
| 1787843308 | 28.33° C | 53% | 1019.1 hPa | - | - | - | - |
| 1787842408 | 28.89° C | 54% | 1019.3 hPa | - | - | - | - |
| 1787841508 | 28.33° C | 54% | 1019.5 hPa | - | - | - | - |
| 1787840608 | 28.33° C | 55% | 1019.5 hPa | - | - | - | - |
| 1787839708 | 28.89° C | 56% | 1019.1 hPa | - | - | - | - |
| 1787838807 | 26.67° C | 57% | 1019.2 hPa | - | - | - | - |
| 1787837907 | 26.67° C | 58% | 1019.3 hPa | - | - | - | - |
| 1787837007 | 26.11° C | 58% | 1019.3 hPa | - | - | - | - |
* Rain since midnight (hover to see other rain measurements)
** Current wind speed in m/s (hover to see current wind gust speed)